DW5993 Weather Reports


time (UTC)temp
C
wind
direction
speed
KPH
gust
KPH
rain 1hr
cm
rain 24hr
cm
rain mn
cm
humidity
%
barometer
mb
20220812181735 30 293 4.8 8.0 0.00 0.00 0.00 34 1024.7
20220812180715 31 113 3.2 6.4 0.00 0.00 0.00 34 1024.9
20220812175735 29 0 3.2 6.4 0.00 0.00 0.00 36 1024.6
20220812173715 30 45 3.2 6.4 0.00 0.00 0.00 35 1025.2
20220812172735 29 68 4.8 8.0 0.00 0.00 0.00 37 1025.1
20220812171816 28 113 1.6 3.2 0.00 0.00 0.00 38 1025.7
20220812170715 28 135 4.8 6.4 0.00 0.00 0.00 37 1026.1
20220812165715 28 90 1.6 3.2 0.00 0.00 0.00 38 1026.5
20220812164715 28 0 1.6 3.2 0.00 0.00 0.00 37 1027.0
20220812163755 28 68 1.6 3.2 0.00 0.00 0.00 38 1026.7
20220812162715 27 68 1.6 3.2 0.00 0.00 0.00 39 1027.2
20220812161715 27 135 1.6 3.2 0.00 0.00 0.00 40 1026.7
20220812155735 26 135 1.6 3.2 0.00 0.00 0.00 42 1027.0
20220812154715 26 68 1.6 3.2 0.00 0.00 0.00 41 1026.6
20220812153735 26 113 4.8 4.8 0.00 0.00 0.00 43 1026.7
20220812152755 25 135 3.2 4.8 0.00 0.00 0.00 42 1026.6
20220812151735 25 68 1.6 3.2 0.00 0.00 0.00 42 1026.3
20220812150715 25 180 1.6 3.2 0.00 0.00 0.00 43 1025.9
20220812145855 25 180 1.6 3.2 0.00 0.00 0.00 42 1026.0
20220812144755 25 180 3.2 3.2 0.00 0.00 0.00 42 1025.6
20220812143737 23 180 1.6 1.6 0.00 0.00 0.00 45 1025.3
20220812142835 23 180 1.6 3.2 0.00 0.00 0.00 52 1025.4
20220812141735 22 0.0 1.6 0.00 0.00 0.00 54 1025.4
20220812140716 22 0.0 0.0 0.00 0.00 0.00 55 1024.9
20220812135715 21 180 1.6 3.2 0.00 0.00 0.00 54 1024.9
20220812134717 21 225 1.6 3.2 0.00 0.00 0.00 58 1024.9
20220812133817 20 225 1.6 1.6 0.00 0.00 0.00 58 1024.7
20220812132717 18 45 1.6 3.2 0.00 0.00 0.00 68 1024.1
20220812131735 18 0.0 0.0 0.00 0.00 0.00 67 1024.2
20220812130715 17 45 1.6 3.2 0.00 0.00 0.00 68 1024.2
20220812125816 17 0.0 0.0 0.00 0.00 0.00 66 1024.1
20220812124735 17 0.0 1.6 0.00 0.00 0.00 65 1024.4
20220812123818 17 0.0 1.6 0.00 0.00 0.00 63 1024.7
20220812122735 17 0.0 0.0 0.00 0.00 0.00 62 1024.9
20220812120715 18 45 1.6 3.2 0.00 0.00 0.00 62 1024.7
20220812114835 17 0.0 1.6 0.00 0.00 0.00 59 1024.0
20220812113737 17 45 1.6 1.6 0.00 0.00 0.00 61 1023.8
20220812112858 17 0.0 0.0 0.00 0.00 0.00 60 1023.4
20220812111837 17 0.0 1.6 0.00 0.00 0.00 61 1023.1
20220812110717 18 45 1.6 3.2 0.00 0.00 0.00 60 1023.2
20220812105837 18 0.0 1.6 0.00 0.00 0.00 60 1023.2
20220812103737 18 0.0 0.0 0.00 0.00 0.00 59 1023.8
20220812102717 18 0.0 0.0 0.00 0.00 0.00 58 1023.7
20220812101717 18 0.0 0.0 0.00 0.00 0.00 58 1023.8
20220812100737 18 0.0 0.0 0.00 0.00 0.00 59 1024.0
20220812094737 18 0.0 0.0 0.00 0.00 0.00 57 1023.9
20220812093737 18 45 1.6 1.6 0.00 0.00 0.00 56 1023.7
20220812092717 18 0.0 1.6 0.00 0.00 0.00 56 1023.9
20220812091717 18 45 1.6 3.2 0.00 0.00 0.00 56 1023.6
20220812084857 20 0.0 1.6 0.00 0.00 0.00 53 1023.9
20220812083738 20 0.0 0.0 0.00 0.00 0.00 51 1024.1
20220812081717 21 0.0 0.0 0.00 0.00 0.00 48 1023.9
20220812080717 22 0.0 1.6 0.00 0.00 0.00 47 1023.9
20220812075817 23 0 1.6 3.2 0.00 0.00 0.00 43 1024.1
20220812074717 23 293 3.2 8.0 0.00 0.00 0.00 40 1024.4
20220812073837 23 315 4.8 9.7 0.00 0.00 0.00 40 1024.4
20220812072837 25 0 1.6 1.6 0.00 0.00 0.00 37 1024.5
20220812071737 23 270 3.2 8.0 0.00 0.00 0.00 41 1023.5
20220812070737 21 23 1.6 3.2 0.00 0.00 0.00 49 1023.1
20220812065757 21 0.0 1.6 0.00 0.00 0.00 50 1023.4
20220812064837 21 0.0 0.0 0.00 0.00 0.00 49 1023.5
20220812063837 22 23 1.6 3.2 0.00 0.00 0.00 47 1023.5
20220812062737 22 203 1.6 6.4 0.00 0.00 0.00 42 1023.5
20220812061817 21 45 1.6 3.2 0.00 0.00 0.00 50 1023.5
20220812060757 21 0.0 1.6 0.00 0.00 0.00 50 1023.2
20220812055836 21 0.0 0.0 0.00 0.00 0.00 48 1023.2
20220812054755 22 0.0 0.0 0.00 0.00 0.00 48 1023.3
20220812053755 22 0.0 0.0 0.00 0.00 0.00 47 1023.1
20220812052715 22 0.0 0.0 0.00 0.00 0.00 45 1023.0
20220812051735 23 45 1.6 1.6 0.00 0.00 0.00 43 1022.8
20220812050855 24 45 1.6 3.2 0.00 0.00 0.00 42 1023.0
20220812045715 25 45 1.6 3.2 0.00 0.00 0.00 37 1022.8
20220812044715 27 45 1.6 3.2 0.00 0.00 0.00 33 1023.0
20220812043835 27 0 4.8 6.4 0.00 0.00 0.00 31 1022.9
20220812042715 27 293 4.8 12.9 0.00 0.00 0.00 31 1022.9
20220812041835 27 270 6.4 8.0 0.00 0.00 0.00 32 1022.6
20220812040735 27 270 6.4 8.0 0.00 0.00 0.00 32 1022.6
20220812035755 27 270 4.8 11.3 0.00 0.00 0.00 33 1022.6
20220812034815 27 315 3.2 4.8 0.00 0.00 0.00 34 1022.5
20220812033735 27 338 3.2 4.8 0.00 0.00 0.00 35 1022.5
20220812032718 27 270 1.6 3.2 0.00 0.00 0.00 35 1022.1
20220812031735 27 23 1.6 4.8 0.00 0.00 0.00 37 1021.8
20220812025715 26 0.0 0.0 0.00 0.00 0.00 38 1021.6
20220812024835 25 158 3.2 12.9 0.00 0.00 0.00 42 1021.3
20220812023715 25 338 1.6 1.6 0.00 0.00 0.00 46 1020.9
20220812022735 26 338 1.6 1.6 0.00 0.00 0.00 43 1020.2
20220812021815 26 338 1.6 3.2 0.00 0.00 0.00 46 1020.1
20220812020715 26 0.0 1.6 0.00 0.00 0.00 46 1020.1
20220812015715 26 0.0 0.0 0.00 0.00 0.00 46 1020.0
20220812014755 27 0.0 0.0 0.00 0.00 0.00 46 1019.7
20220812013836 27 0.0 1.6 0.00 0.00 0.00 45 1019.4
20220812012718 27 0.0 0.0 0.00 0.00 0.00 44 1019.4
20220812011715 27 0.0 0.0 0.00 0.00 0.00 43 1019.0
20220812005736 28 338 1.6 1.6 0.00 0.00 0.00 43 1019.1
20220812004735 28 0.0 0.0 0.00 0.00 0.00 42 1019.2
20220812003715 30 0.0 0.0 0.00 0.00 0.00 40 1019.6
20220812002815 31 0.0 1.6 0.00 0.00 0.00 37 1019.9
20220812001715 30 0.0 1.6 0.00 0.00 0.00 42 1020.1
20220812000835 30 0.0 0.0 0.00 0.00 0.00 41 1020.1
20220811235715 31 0.0 1.6 0.00 0.00 0.00 41 1020.6
20220811234755 31 0.0 0.0 0.00 0.00 0.00 39 1020.5
20220811233715 31 0.0 1.6 0.00 0.00 0.00 38 1020.5
20220811232715 31 0.0 1.6 0.00 0.00 0.00 36 1020.6
20220811231756 31 0.0 1.6 0.00 0.00 0.00 37 1020.8
20220811230715 32 0.0 1.6 0.00 0.00 0.00 34 1020.8
20220811224836 32 0 1.6 3.2 0.00 0.00 0.00 30 1021.0
20220811223815 33 0.0 1.6 0.00 0.00 0.00 31 1021.4
20220811222758 33 135 1.6 1.6 0.00 0.00 0.00 28 1021.5
20220811221735 32 0.0 1.6 0.00 0.00 0.00 27 1021.5
20220811220735 32 113 1.6 3.2 0.00 0.00 0.00 29 1021.7
20220811215735 33 0.0 1.6 0.00 0.00 0.00 29 1021.8
20220811214855 33 135 1.6 3.2 0.00 0.00 0.00 28 1022.2
20220811213735 33 68 3.2 6.4 0.00 0.00 0.00 27 1022.3
20220811212735 34 0.0 1.6 0.00 0.00 0.00 28 1022.9
20220811211735 33 180 1.6 3.2 0.00 0.00 0.00 29 1022.5
20220811210735 32 135 6.4 11.3 0.00 0.00 0.00 28 1022.0
20220811205715 32 158 6.4 8.0 0.00 0.00 0.00 28 1022.4
20220811204715 33 113 1.6 3.2 0.00 0.00 0.00 30 1022.7
20220811203715 34 90 1.6 3.2 0.00 0.00 0.00 32 1023.4
20220811202715 33 315 1.6 1.6 0.00 0.00 0.00 34 1023.7
20220811201835 33 68 1.6 3.2 0.00 0.00 0.00 33 1023.4
20220811195835 33 113 1.6 3.2 0.00 0.00 0.00 32 1023.7
20220811194755 32 315 3.2 8.0 0.00 0.00 0.00 33 1023.9
20220811193755 32 113 1.6 3.2 0.00 0.00 0.00 33 1024.0
20220811192715 32 0 3.2 6.4 0.00 0.00 0.00 31 1024.1
20220811190715 31 113 1.6 9.7 0.00 0.00 0.00 37 1024.1
20220811185855 32 90 1.6 3.2 0.00 0.00 0.00 30 1024.4
20220811184815 31 45 1.6 1.6 0.00 0.00 0.00 32 1024.5
20220811183755 31 135 3.2 3.2 0.00 0.00 0.00 34 1024.2
20220811182718 30 45 3.2 6.4 0.00 0.00 0.00 36 1024.5